Location: Godiavel Galaoual
(15.2485°N, 12.6604°W)
Time: 07:46:54
(UTC+00:00)

Vanguard 2 - All Passes

Search period start: 15 June 2021 00:00
Search period end: 25 June 2021 00:00
Orbit: 552 x 2937 km, 32.9° (Epoch: 14 June)

Date Brightness Start Highest point End Pass type
(mag) Time Alt. Az. Time Alt. Az. Time Alt. Az.
15 Jun - 00:48:26 10° NNW 00:51:35 19° NNE 00:54:32 10° ENE night (unlit)
15 Jun - 02:56:07 10° WNW 02:59:58 54° SSW 03:04:40 10° SE night (unlit)
15 Jun - 14:01:26 10° SSW 14:13:54 23° SSE 14:24:45 10° ESE daylight
15 Jun - 16:10:25 10° SW 16:27:03 58° SSE 16:38:16 10° ENE daylight
15 Jun - 18:24:12 10° WSW 18:38:25 61° NNW 18:46:57 10° NE daylight
15 Jun - 20:41:31 10° WNW 20:48:53 23° NNW 20:54:02 10° NNE visible
15 Jun - 22:57:08 10° NNW 22:59:42 13° N 23:01:55 10° NNE visible
16 Jun - 01:05:45 10° NW 01:09:33 31° NNE 01:13:06 10° E night (unlit)
16 Jun - 03:14:17 10° W 03:17:44 28° SSW 03:21:53 10° SSE night (unlit)
16 Jun - 14:17:42 10° SSW 14:32:19 31° SE 14:44:29 10° E daylight
16 Jun - 16:28:01 10° SW 16:45:05 74° SSE 16:56:17 10° ENE daylight
16 Jun - 18:43:00 10° W 18:56:20 48° NNW 19:04:32 10° NE daylight
16 Jun - 21:00:50 10° WNW 21:07:08 20° NNW 21:11:45 10° NNE visible
16 Jun - 23:14:49 10° NNW 23:18:02 15° N 23:20:43 10° NE visible
17 Jun - 01:23:15 10° NW 01:27:23 55° NNE 01:31:19 10° ESE night (unlit)
17 Jun - 03:33:08 10° WSW 03:35:36 15° SSW 03:38:23 10° S night (unlit)
17 Jun - 12:29:36 10° S 12:36:39 13° SSE 12:43:37 10° ESE daylight
17 Jun - 14:34:26 10° SSW 14:50:32 41° SE 15:03:29 10° E daylight
17 Jun - 16:45:57 10° WSW 17:03:04 89° NNW 17:14:08 10° ENE daylight
17 Jun - 19:02:06 10° W 19:14:20 39° NNW 19:22:07 10° NE daylight
17 Jun - 21:19:55 10° NW 21:25:30 18° N 21:29:41 10° NNE visible
17 Jun - 23:32:20 10° NW 23:36:17 20° NNE 23:39:28 10° ENE visible
18 Jun - 01:40:58 10° WNW 01:45:08 76° SSW 01:49:09 10° SE night (unlit)
18 Jun - 12:44:13 10° S 12:55:16 20° SE 13:05:58 10° ESE daylight
18 Jun - 14:51:31 10° SW 15:08:41 53° SE 15:22:02 10° ENE daylight
18 Jun - 17:04:12 10° WSW 17:21:02 73° NNW 17:31:51 10° NE daylight
18 Jun - 19:21:24 10° W 19:32:29 32° NNW 19:39:45 10° NE daylight
18 Jun - 21:38:38 10° NW 21:43:54 18° N 21:47:54 10° NE visible
18 Jun - 23:49:49 10° NW 23:54:25 28° NNE 23:58:02 10° E visible
19 Jun - 01:59:00 10° WNW 02:02:47 37° SW 02:06:33 10° SE night (unlit)
19 Jun - 13:00:07 10° SSW 13:13:37 27° SE 13:26:27 10° E daylight
19 Jun - 15:08:54 10° SW 15:26:44 67° SE 15:40:15 10° ENE daylight
19 Jun - 17:22:48 10° WSW 17:39:02 60° NNW 17:49:31 10° NE daylight
19 Jun - 19:40:47 10° WNW 19:50:46 28° NNW 19:57:30 10° NE visible
19 Jun - 21:56:56 10° NW 22:02:20 19° N 22:06:21 10° NE visible
20 Jun - 00:07:23 10° NW 00:12:25 44° NNE 00:16:17 10° E visible
20 Jun - 02:17:34 10° W 02:20:27 19° SW 02:23:22 10° SSE night (unlit)
20 Jun - 13:16:35 10° SSW 13:31:47 36° SE 13:45:58 10° E daylight
20 Jun - 15:26:37 10° SW 15:44:45 82° SSE 15:58:15 10° ENE daylight
20 Jun - 17:41:42 10° W 17:57:07 49° NNW 18:07:11 10° NE daylight
20 Jun - 20:00:04 10° WNW 20:09:11 25° NNW 20:15:26 10° NE visible
20 Jun - 22:14:55 10° NW 22:20:42 23° N 22:24:53 10° ENE visible
21 Jun - 00:25:05 10° WNW 00:30:16 78° NNE 00:34:15 10° ESE visible
21 Jun - 11:28:39 10° S 11:36:40 15° SE 11:45:07 10° ESE daylight
21 Jun - 13:33:27 10° SSW 13:49:49 47° SE 14:04:51 10° ENE daylight
21 Jun - 15:44:38 10° WSW 16:02:46 83° NNW 16:16:06 10° ENE daylight
21 Jun - 18:00:52 10° W 18:15:19 41° NNW 18:24:54 10° NE daylight
21 Jun - 20:19:08 10° NW 20:27:40 24° N 20:33:34 10° NE visible
21 Jun - 22:32:43 10° NW 22:38:59 29° NNE 22:43:21 10° ENE visible
22 Jun - 00:43:01 10° WNW 00:47:57 56° SW 00:51:50 10° SE night (unlit)
22 Jun - 11:43:43 10° S 11:54:57 22° SE 12:06:54 10° E daylight
22 Jun - 13:50:37 10° SW 14:07:49 59° SE 14:23:19 10° ENE daylight
22 Jun - 16:02:58 10° WSW 16:20:50 70° NNW 16:33:52 10° NE daylight
22 Jun - 18:20:13 10° W 18:33:41 36° NNW 18:42:43 10° NE daylight
22 Jun - 20:37:53 10° NW 20:46:11 25° N 20:51:54 10° NE visible
22 Jun - 22:50:27 10° NW 22:57:09 41° NNE 23:01:38 10° E visible
23 Jun - 01:01:19 10° W 01:05:30 29° SW 01:09:00 10° SSE night (unlit)
23 Jun - 11:59:48 10° SSW 12:13:00 30° SE 12:27:08 10° E daylight
23 Jun - 14:08:06 10° SW 14:25:48 73° SE 14:41:31 10° ENE daylight
23 Jun - 16:21:36 10° WSW 16:39:00 58° NNW 16:51:38 10° NE daylight
23 Jun - 18:39:35 10° WNW 18:52:10 32° NNW 19:00:41 10° NE daylight
23 Jun - 20:56:17 10° NW 21:04:42 28° N 21:10:19 10° ENE visible
23 Jun - 23:08:14 10° NW 23:15:09 63° NNE 23:19:41 10° ESE visible
24 Jun - 01:20:21 10° WSW 01:23:00 15° SW 01:25:23 10° S night (unlit)
24 Jun - 12:16:23 10° SSW 12:30:55 40° SE 12:46:32 10° ENE daylight
24 Jun - 14:25:52 10° SW 14:43:49 88° SSE 14:59:32 10° ENE daylight
24 Jun - 16:40:32 10° W 16:57:17 50° NNW 17:09:25 10° NE daylight
24 Jun - 18:58:51 10° WNW 19:10:46 30° N 19:18:48 10° NE daylight
24 Jun - 21:14:25 10° NW 21:23:08 33° NNE 21:28:44 10° ENE visible
24 Jun - 23:26:09 10° WNW 23:32:57 81° SSW 23:37:25 10° SE visible
